Regional Weather Roundup
Issued by NWS

Home | Current Version | Previous Version | Text Only | Print | Product List | Glossary Off
Versions: 1 2 3 4 5 6 7 8 9 10 11 12 13 14 15 16 17 18 19 20 21 22 23 24 25 26 27

000
ASUS45 KCYS 230410
RWRWY

WYOMING REGIONAL WEATHER ROUNDUP
NATIONAL WEATHER SERVICE CHEYENNE WY
1000 PM MDT TUE APR 22 2014

NOTE:  "FAIR" INDICATES FEW OR NO CLOUDS BELOW 12,000 FEET
WITH NO SIGNIFICANT WEATHER AND/OR OBSTRUCTIONS TO VISIBILITY.

WYZ001-230500-
YELLOWSTONE NATIONAL PARK

CITY           SKY/WX    TMP DP  RH WIND       PRES   REMARKS
LK YELLOWSTONE   N/A     33  29  85 VRB5      29.68R WCI  29
W YELLOWSTONE  NOT AVBL

$$
WYZ002>013-054>058-071-098>099-230500-
NORTHERN WYOMING

CITY           SKY/WX    TMP DP  RH WIND       PRES   REMARKS
JACKSON        CLOUDY    37  34  87 S16       29.68R WCI  28
CODY           MOCLDY    59  34  38 W17       29.44R
GREYBULL       MOCLDY    66  36  32 S15G22    29.39F
WORLAND        MOCLDY    59  38  45 S10       29.43R
SHERIDAN         N/A     46  28  49 CALM        N/A
BUFFALO        PTCLDY    55  38  52 S14       29.49F
GILLETTE       CLOUDY    53  43  68 S12       29.51F
HULETT         FAIR      63  37  39 S8        29.55
NEWCASTLE      FAIR      61  36  39 SE20      29.58

$$
WYZ014>020-022>026-101>103-230500-
CENTRAL WYOMING

CITY           SKY/WX    TMP DP  RH WIND       PRES   REMARKS
BIG PINEY      CLOUDY    44  36  73 SW12      29.66S
PINEDALE       CLOUDY    45  34  65 S14G26    29.66S
DUBOIS         CLOUDY    43  36  75 CALM      29.61F
LANDER         CLOUDY    57  33  40 SW15G22   29.51R
RIVERTON       CLOUDY    58  32  37 W23G36    29.53R
CASPER         CLOUDY    62  24  23 S25G32    29.54F
DOUGLAS        CLOUDY    58  41  53 S15       29.60F

$$
WYZ021-027>030-104>119-230500-
SOUTHERN WYOMING

CITY           SKY/WX    TMP DP  RH WIND       PRES   REMARKS
EVANSTON       CLOUDY    37  32  82 W14       29.80R WCI  28
KEMMERER       LGT RAIN  36  32  87 W22G30    29.74R WCI  24
FORT BRIDGER   CLOUDY    40  38  94 W23G29    29.78R WCI  30
ROCK SPRINGS   CLOUDY    50  34  54 W29G38    29.67R
DIXON          FAIR      60  27  28 S16G26    29.70S
RAWLINS        PTCLDY    53  26  35 S10       29.67F
SARATOGA       FAIR      54  28  37 SE14      29.70F
LARAMIE        CLOUDY    49  30  48 S13       29.75F
CHEYENNE       CLOUDY    56  36  47 SW7       29.72F
TORRINGTON     CLOUDY    61  38  42 SE9       29.60F
PINE BLUFFS    FAIR      54  37  54 CALM      29.69F

$$



USA.gov is the U.S. government's official web portal to all federal, state and local government web resources and services.